Location: Alafon
(8.4500°N, 4.2333°E)
Time: 01:55:26
(UTC+00:00)

Cosmos 1745 Rocket - Pass Details

Date: 05 July 2020
Orbit: 954 x 997 km, 83.0° (Epoch: 06 August)

Event Time Altitude Azimuth Distance (km) Brightness Sun altitude
Exits shadow 19:35:40 36° 96° (E) 1,482 4.5 -20.9°
Maximum altitude 19:35:54 36° 92° (E) 1,480 4.5 -21.0°
Drops below altitude 10° 19:41:26 10° 27° (NNE) 2,696 6.3 -22.2°
Sets 19:44:08 0° 19° (NNE) 3,648 7.1 -22.8°
